Terminal Aerodrome Forecast
Issued by NWS Corpus Christi, TX

Home | Current Version | Previous Version | Text Only | Print | Product List | Glossary On
Versions: 1 2 3 4 5 6 7 8 9 10 11 12 13 14
000
FTUS44 KCRP 292300
TAFVCT
TAF
KVCT 292340Z 3000/3024 11009KT P6SM VCSH SCT030 BKN100
     FM300400 VRB04KT P6SM SCT015 BKN120
      TEMPO 3009/3013 BKN015
     FM301400 VRB05KT P6SM SCT025 SCT120 PROB30 3014/3018 -TSRA
      BKN025CB
     FM301800 13009KT P6SM SCT040 PROB30 3018/3022 -TSRA BKN030CB=

USA.gov is the U.S. government's official web portal to all federal, state and local government web resources and services.